Flag for Germany Weather past 2 weeks in Bad Kreuznach, Rhineland-Palatinate, Germany

Now
53 °F

Overcast.


Feels Like: 53 °F
Forecast: 41 / 60 °F
Wind: 2 mph from Northwest

Location: Wiesbaden Airport

Current Time: Oct 26, 2014 at 5:26:56 AM

Latest Report: Oct 26, 2014 at 4:58 AM


Visibility: N/A

Pressure: 30.28 "Hg

Humidity: 100%

Dew point: 53 °F

Location of Bad KreuznachLocation

Historic Weather in Bad Kreuznach — Graph

°F

Bad Kreuznach temperature yesterday

Maximum temperature yesterday: 54 °F (at 4:58 PM)
Minimum temperature yesterday: 48 °F (at 7:58 AM)
Average temperature yesterday: 51 °F

Past Weeks' High & Low Weather Summary

 TemperatureHumidityPressure
High72 °F (Oct 19, 3:58 PM)100% (Oct 11, 4:59 AM)30.28 "Hg (Oct 11, 4:59 AM)
Low39 °F (Oct 24, 3:58 AM)59% (Oct 15, 3:58 PM)29.58 "Hg (Oct 21, 5:58 PM)
Average54 °F90%29.99 "Hg
* Reported Oct 11 4:59 AM — Oct 26 3:58 AM, Bad Kreuznach, Weather by CustomWeather, © 2014

Note: Actual official high and low records may vary slightly from our data, if they occured in-between our weather recording intervals... More about our weather records

Advertising

Bad Kreuznach weather history for previous 24 hours

 ConditionsComfort  
Time TempWeatherWind HumidityBarometerVisibility
3:58 AM
Oct 26
52 °FMostly cloudy.2 mph100%30.27 "HgN/A
2:58 AM54 °FOvercast.2 mph100%30.27 "HgN/A
2:58 AM54 °FOvercast.No wind100%30.27 "HgN/A
1:58 AM54 °FMostly cloudy.No wind94%30.26 "HgN/A
1:03 AM54 °FOvercast.No wind94%30.24 "HgN/A
11:58 PM
Oct 25
54 °FOvercast.2 mph94%30.24 "HgN/A
10:58 PM54 °FOvercast.2 mph95%30.23 "HgN/A
9:58 PM54 °FOvercast.2 mph94%30.22 "HgN/A
8:58 PM54 °FOvercast.2 mph94%30.21 "HgN/A
7:58 PM54 °FOvercast.2 mph94%30.20 "HgN/A
6:58 PM54 °FOvercast.2 mph94%30.19 "HgN/A
5:58 PM54 °FOvercast.No wind94%30.18 "HgN/A
4:58 PM54 °FOvercast.No wind88%30.17 "HgN/A
3:58 PM54 °FOvercast.1 mph94%30.16 "HgN/A
2:58 PM54 °FOvercast.No wind94%30.16 "HgN/A
1:58 PM53 °FLow clouds.2 mph92%30.15 "HgN/A
12:58 PM52 °FLow clouds.2 mph94%30.16 "HgN/A
11:58 AM52 °FLow clouds.1 mph94%30.15 "HgN/A
10:58 AM50 °FLow clouds.2 mph100%30.15 "HgN/A
9:58 AM48 °FMostly cloudy.No wind100%30.14 "HgN/A
8:58 AM48 °FMostly cloudy.No wind100%30.13 "HgN/A
7:58 AM48 °FFog.2 mph99%30.11 "Hg6 mi
6:58 AM48 °FPartly cloudy.2 mph100%30.11 "HgN/A
5:58 AM49 °FLight rain. Passing clouds.1 mph96%30.10 "HgN/A
Weather by CustomWeather, © 2014

See weather overviewHow to use our weather pages